This is the latest recevied weather packets stored in our database for station/object OH2NJR. If no packets are shown the sender has not sent any weather packets the latest 10 day(s).
| Time | Temp. | Humidity | Pressure | Rain* | Wind** | Luminosity | Snow |
|---|---|---|---|---|---|---|---|
| 1777869268 | 7.78° C | 57% | 1005.9 hPa | 0 mm | - | - | - |
| 1777868138 | 7.78° C | 58% | 1005.9 hPa | 0 mm | - | - | - |
| 1777867108 | 7.78° C | 57% | 1006 hPa | 0 mm | - | - | - |
| 1777866143 | 7.78° C | 59% | 1006.1 hPa | 0 mm | - | - | - |
| 1777864993 | 7.78° C | 60% | 1005.9 hPa | 0 mm | - | - | - |
| 1777863804 | 7.78° C | 58% | 1006.1 hPa | 0 mm | - | - | - |
| 1777862753 | 8.33° C | 57% | 1006.2 hPa | 0 mm | - | - | - |
| 1777861663 | 8.33° C | 56% | 1006.2 hPa | 0 mm | - | - | - |
| 1777860568 | 8.89° C | 53% | 1006.3 hPa | 0 mm | - | - | - |
| 1777859543 | 8.89° C | 55% | 1006.5 hPa | 0 mm | - | - | - |
| 1777858418 | 9.44° C | 54% | 1006.6 hPa | 0 mm | - | - | - |
| 1777857453 | 9.44° C | 54% | 1006.5 hPa | 0 mm | - | - | - |
| 1777856418 | 10.56° C | 56% | 1006.8 hPa | 0 mm | - | - | - |
| 1777855263 | 10.56° C | 55% | 1006.9 hPa | 0 mm | - | - | - |
| 1777854098 | 11.11° C | 60% | 1006.8 hPa | 0 mm | - | - | - |
| 1777853024 | 11.11° C | 63% | 1007 hPa | 0 mm | - | - | - |
| 1777851908 | 10.56° C | 72% | 1007 hPa | 0 mm | - | - | - |
| 1777850933 | 10.56° C | 73% | 1007.1 hPa | 0 mm | - | - | - |
| 1777849948 | 10° C | 80% | 1007.1 hPa | 0 mm | - | - | - |
| 1777848823 | 10° C | 82% | 1007.2 hPa | 0 mm | - | - | - |
| 1777847823 | 9.44° C | 84% | 1007.2 hPa | 0 mm | - | - | - |
| 1777846828 | 9.44° C | 84% | 1007.3 hPa | 0 mm | - | - | - |
| 1777845693 | 9.44° C | 83% | 1007.4 hPa | 0 mm | - | - | - |
| 1777844563 | 9.44° C | 84% | 1007.3 hPa | 0 mm | - | - | - |
| 1777843445 | 9.44° C | 83% | - | 0 mm | - | - | - |
* Rain latest hour (hover to see other rain measurements)
** Current wind speed in m/s (hover to see current wind gust speed)